Location: Powder Track
(41.8531°N, 72.3584°W)
Time: 00:18:35
(UTC+00:00)

Vanguard 1 Rocket - Pass Details

Date: 15 August 2021
Orbit: 650 x 4226 km, 34.3° (Epoch: 19 September)

Event Time Altitude Azimuth Distance (km) Brightness Sun altitude
Rises 06:36:33 0° 163° (SSE) 7,166 - -29.4°
Exits shadow 06:37:47 - 160° (SSE) 7,117 11.6 -29.3°
Reaches altitude 10° 06:49:23 10° 131° (SE) 7,040 11.8 -28.2°
Maximum altitude 06:53:24 11° 121° (ESE) 7,158 11.9 -27.8°
Drops below altitude 10° 06:57:31 10° 112° (ESE) 7,342 12.1 -27.4°
Sets 07:12:17 0° 83° (E) 8,388 12.9 -25.7°
